CZ-3C DEB, 42478

Orbit data source: Space-Track

CZ-3C DEB, 42478 is space debris originally from a launch on Fri, 24 Feb 2012 UTC launched from the Xichang Space Center, China (XSC). Debris objects in space refer to the collection of defunct objects orbiting the Earth. Examples of debris include non-operational satellites, rocket bodies, and fragments generated from explosions, collisions, or faulty payload assembly.

Loading next visibility...
CZ-3C DEB details
Identifier
42478, 2012-008AN
Orbit
Molniya
Last TLE update6 months ago
Origin
Flag of CNCASC (CN / PRC)
ManufacturerCALT
MissionSpacecraft
Bus & MotorUnknown
MassUnknown
Launch date (UTC)
2012-02-24 (13 years ago)
Launch vehicleUnknown
Launch site
Xichang Space Center, China (XSC)
Object type
Payload
Rocket body
Debris
Shape & HBRUnknown
Radar Cross SectionMedium (>0.1 m² and <1 m²)

Expand to show TLE details & history

TLE from 6 months ago
0 CZ-3C DEB
1 42478U 12008AN  24164.29735707 -.00000072  00000-0  00000-0 0  9993
2 42478  20.2787 114.2210 6806610  94.3229 339.6687  2.24186473  5172
Epoch: 2024-06-12T07:08Z
Definitive object data (Epoch: 2024-06-12T07:08:11.65Z)
Latitude0.00002°
Longitude105.9336°
Altitude7,608.324 km
Speed6.39 km/s
True Right ascension07h 36m 21s
True Declination0° 00' 00"
Sunlit
Object was in daylight at TLE epoch
Visualization TLE readout
Latitude4.27357°
Longitude65.27641°
Altitude34,818.904 km
Speed1.785 km/s
Apparent Right ascension04h 31m 41s
Apparent Declination-1° 30' 51"
Sunlit
Object is in daylight
Visualization observer readout
Local Sidereal Time08:06:02
Azimuth243.501° WSW
Elevation25.989°
Doppler factor1
Orbital elements
Apogee altitude35,073.486 km
Perigee altitude1,498.002 km
Semi-major axis24,663.881 km
Eccentricity0.680661
Inclination20.2787°
RAAN114.221°
Arg. of periapsis94.3229°
True anomaly265.66438°
Mean anomaly339.6687°
Eccentric anomaly309.63437°
Mean motion0.56034 °/min
BSTARUnknown
Orbital period642.47 mins
Loading maneuver chart data...
Loading historical data...
Loading historical data...
Loading historical data...
Loading historical data...
Loading historical data...
Loading historical data...
Loading historical data...

CZ-3C DEB Visibility forecast

Observer location: undefined°, undefined

Span
Click to sort rows by Start time (UTC) header in descending order
Start Az.
Max El. time (UTC)
Max El. Az.
Max El.
End time (UTC)
End Az.
275 mins2024-12-04 10:11:37.572Z243.486° WSW2024-12-04 14:33:37.572Z212.738° SW33.315°2024-12-04 14:46:37.572Z147.085° SSE
459 mins2024-12-05 02:32:37.572Z185.817° SSW2024-12-05 10:11:37.572Z221.298° SW37.33°2024-12-05 10:11:37.572Z221.298° SW
|